1509372001.12,49622,8.44,72198.0,-12.97,-13.69,-13.83,0,*62
1509372002.36,49623,8.44,72202.8,-12.97,-13.69,-13.83,0,*63
1509372003.6,49624,8.44,72220.3,-12.97,-13.69,-13.83,0,*64
1509372004.9,49625,8.44,72222.0,-12.99,-13.83,-13.87,0,*6B
1509372006.16,49626,8.44,72216.8,-12.99,-13.73,-13.87,0,*67
1509372007.43,49627,8.44,72224.0,-12.99,-13.73,-13.87,0,*66
1509372008.7,49628,8.44,72202.0,-12.97,-13.83,-13.87,0,*68
1509372009.96,49629,8.44,72194.5,-12.97,-13.79,-13.87,0,*6C
1509372011.2,49630,8.44,72210.0,-12.99,-13.73,-13.93,0,*65
1509372012.47,49631,8.44,72218.0,-12.97,-13.83,-13.83,0,*64
1509372013.75,49632,8.44,72204.5,-12.97,-13.83,-13.97,0,*62
1509372015.01,49633,8.44,72214.5,-12.99,-13.87,-13.93,0,*6D
1509372016.27,49634,8.44,72222.5,-12.99,-13.87,-13.93,0,*6A
1509372017.57,49635,8.44,72234.3,-12.99,-13.87,-14.01,0,*67
1509372018.84,49636,8.44,72248.0,-12.97,-13.83,-13.97,0,*66
1509372020.12,49637,8.44,72264.8,-12.97,-13.83,-13.97,0,*67
1509372021.42,49638,8.44,72250.5,-12.99,-13.87,-14.01,0,*6A
1509372022.66,49639,8.44,72246.5,-12.99,-13.93,-14.15,0,*6B
1509372023.89,49640,8.44,72232.8,-12.97,-14.11,-14.15,0,*66
1509372025.16,49641,8.44,72210.3,-12.99,-14.05,-14.29,0,*63
1509372026.43,49642,8.44,72204.3,-13.01,-14.05,-14.15,0,*6F
1509372027.67,49643,8.44,72190.8,-13.01,-13.93,-13.93,0,*6F
1509372028.96,49644,8.44,72174.8,-13.01,-13.87,-14.01,0,*61
1509372030.23,49645,8.44,72174.8,-13.01,-13.93,-14.05,0,*61
1509372031.49,49646,8.44,72184.0,-13.01,-13.83,-13.93,0,*6B
1509372032.75,49647,8.44,72178.5,-13.01,-13.73,-13.87,0,*60
1509372034.02,49648,8.44,72170.5,-12.99,-13.73,-13.83,0,*6B
1509372035.31,49649,8.44,72178.3,-13.01,-13.83,-13.83,0,*65
1509372036.6,49650,8.44,72178.0,-13.01,-13.83,-13.87,0,*69
1509372037.87,49651,8.44,72196.8,-13.03,-13.83,-13.87,0,*6A
1509372039.16,49652,8.44,72206.5,-13.01,-13.87,-13.87,0,*6F
1509372040.42,49653,8.44,72214.3,-13.01,-13.87,-13.93,0,*6B
1509372041.68,49654,8.44,72220.3,-13.01,-13.73,-13.87,0,*62
1509372042.94,49655,8.44,72222.0,-13.01,-13.73,-13.83,0,*67
1509372044.2,49656,8.44,72220.3,-13.01,-13.69,-13.87,0,*6B
1509372045.42,49657,8.44,72222.8,-13.03,-13.55,-13.73,0,*6C
1509372046.68,49658,8.44,72224.8,-13.01,-13.61,-13.69,0,*6D
1509372047.95,49659,8.44,72224.0,-12.99,-13.61,-13.73,0,*67
1509372049.19,49660,8.44,72228.0,-12.99,-13.69,-13.73,0,*65
1509372050.45,49661,8.44,72234.5,-12.99,-13.61,-13.69,0,*67
1509372051.71,49662,8.44,72234.5,-12.99,-13.61,-13.73,0,*6F
1509372052.96,49663,8.44,72242.0,-12.99,-13.69,-13.73,0,*66
1509372054.2,49664,8.44,72242.0,-12.99,-13.69,-13.73,0,*61
1509372055.49,49665,8.44,72246.5,-12.99,-13.61,-13.83,0,*67
1509372056.75,49666,8.44,72246.3,-12.99,-13.61,-13.73,0,*6B
1509372057.97,49667,8.44,72256.3,-12.97,-13.55,-13.69,0,*68
1509372059.23,49668,8.44,72256.5,-12.99,-13.69,-13.87,0,*66
1509372060.49,49669,8.44,72250.8,-12.99,-13.73,-13.87,0,*6C
1509372061.73,49670,8.44,72254.8,-12.97,-13.69,-13.79,0,*60
1509372062.99,49671,8.44,72258.0,-12.99,-13.69,-13.87,0,*6E
1509372064.26,49672,8.44,72256.0,-12.99,-13.69,-13.87,0,*6D
1509372065.52,49673,8.44,72252.0,-12.99,-13.69,-13.87,0,*6C
1509372066.78,49674,8.44,72248.3,-12.99,-13.73,-13.87,0,*60
1509372068.02,49675,8.44,72248.8,-12.99,-13.73,-13.93,0,*64
1509372069.29,49676,8.44,72250.3,-12.99,-13.73,-13.83,0,*66
1509372070.55,49677,8.44,72244.0,-12.99,-13.73,-13.83,0,*67
1509372071.85,49678,8.44,72242.8,-12.99,-13.83,-13.87,0,*63
1509372073.14,49679,8.44,72240.5,-12.99,-13.83,-13.83,0,*66
1509372074.4,49680,8.44,72238.8,-12.99,-13.73,-13.87,0,*6B
1509372075.7,49681,8.44,72234.5,-12.99,-13.83,-13.87,0,*65
1509372076.96,49682,8.44,72228.8,-12.99,-13.73,-13.87,0,*69
1509372078.26,49683,8.44,72226.5,-12.99,-13.83,-13.87,0,*67
1509372079.55,49684,8.44,72234.0,-12.99,-13.83,-13.87,0,*60
1509372080.85,49685,8.44,72232.5,-12.99,-13.83,-13.87,0,*61
1509372082.14,49686,8.44,72234.0,-12.99,-13.83,-13.87,0,*62
1509372083.43,49687,8.44,72238.0,-12.99,-13.87,-13.87,0,*67
1509372084.73,49688,8.44,72236.3,-12.99,-13.83,-13.87,0,*6C
1509372086.02,49689,8.44,72240.0,-12.99,-13.83,-13.87,0,*6D
1509372087.31,49690,8.44,72236.8,-12.99,-13.83,-13.87,0,*65
1509372088.61,49691,8.44,72238.3,-12.99,-13.83,-13.87,0,*64
1509372089.85,49692,8.44,72238.8,-12.97,-13.73,-13.87,0,*66
1509372091.11,49693,8.44,72238.3,-12.99,-13.73,-13.83,0,*6D
1509372092.41,49694,8.44,72238.0,-12.99,-13.83,-13.87,0,*61
1509372093.7,49695,8.44,72236.5,-13.01,-13.83,-13.87,0,*60
1509372094.97,49696,8.44,72232.0,-13.01,-13.83,-13.93,0,*66
1509372096.23,49697,8.44,72226.5,-12.99,-13.83,-13.93,0,*67
1509372097.49,49698,8.44,72222.0,-12.99,-13.87,-13.93,0,*6C
1509372098.76,49699,8.44,72212.3,-12.99,-13.83,-13.93,0,*69
1509372100.03,49700,8.44,72210.5,-12.99,-13.87,-13.93,0,*6C
1509372101.3,49701,8.44,72210.5,-12.99,-14.05,-14.15,0,*69
1509372102.57,49702,8.44,72216.3,-13.01,-13.93,-14.01,0,*67
1509372103.83,49703,8.44,72202.8,-13.01,-13.93,-14.01,0,*66
1509372105.13,49704,8.44,72184.5,-13.01,-13.87,-14.01,0,*64
1509372106.39,49705,8.44,72180.8,-13.01,-13.93,-14.05,0,*64
1509372107.63,49706,8.44,72184.8,-13.01,-13.93,-14.15,0,*66
1509372108.86,49707,8.44,72188.5,-13.01,-13.93,-13.93,0,*6E
1509372110.1,49708,8.44,72192.5,-13.03,-13.87,-13.93,0,*66
1509372111.36,49709,8.44,72202.0,-13.01,-13.87,-13.93,0,*65
1509372112.6,49710,8.44,72202.5,-13.03,-13.83,-13.93,0,*6B
1509372113.86,49711,8.44,72206.3,-13.01,-13.87,-13.93,0,*6C
1509372115.13,49712,8.44,72204.5,-13.03,-13.87,-14.01,0,*61
1509372116.4,49713,8.44,72200.5,-13.01,-13.83,-13.93,0,*6A
1509372117.7,49714,8.44,72202.0,-13.01,-13.83,-14.01,0,*61
1509372118.99,49715,8.44,72202.3,-13.01,-13.83,-13.87,0,*69
1509372120.28,49716,8.44,72200.5,-13.01,-13.87,-13.87,0,*6E
1509372121.52,49717,8.44,72196.8,-13.03,-13.73,-13.87,0,*66
1509372122.76,49718,8.44,72196.5,-13.03,-13.73,-14.01,0,*60
1509372123.97,49719,8.44,72198.3,-13.03,-13.73,-13.93,0,*6D
1509372125.19,49720,8.44,72198.8,-13.03,-13.73,-13.93,0,*67
1509372126.42,49721,8.44,72198.8,-13.03,-13.73,-13.87,0,*63
1509372127.68,49722,8.44,72198.8,-13.01,-13.69,-13.87,0,*69
1509372128.92,49723,8.44,72202.8,-13.03,-13.69,-13.83,0,*6E
1509372130.19,49724,8.44,72200.0,-13.01,-13.69,-13.83,0,*6B
1509372131.47,49725,8.44,72194.8,-13.01,-13.61,-13.83,0,*62
1509372132.74,49726,8.44,72188.0,-13.01,-13.73,-13.83,0,*62
1509372133.98,49727,8.44,72192.3,-13.03,-13.69,-13.83,0,*6A
1509372135.21,49728,8.44,72176.8,-13.01,-13.55,-13.73,0,*67
1509372136.45,49729,8.44,72182.8,-13.03,-13.61,-13.73,0,*63
1509372137.72,49730,8.44,72188.0,-13.01,-13.61,-13.73,0,*69
1509372138.93,49731,8.44,72196.8,-13.03,-13.69,-13.73,0,*62
1509372140.17,49732,8.44,72202.8,-13.01,-13.55,-13.69,0,*67
1509372141.4,49733,8.44,72204.3,-13.01,-13.55,-13.69,0,*66
1509372142.69,49734,8.44,72198.8,-13.01,-13.61,-13.83,0,*62
1509372143.96,49735,8.44,72194.5,-12.99,-13.61,-13.73,0,*6C
1509372145.17,49736,8.44,72188.5,-12.97,-13.55,-13.73,0,*66
1509372146.44,49737,8.44,72188.8,-13.01,-13.61,-13.73,0,*6E
1509372147.67,49738,8.44,72194.3,-12.99,-13.69,-13.69,0,*62
1509372148.91,49739,8.44,72202.8,-12.99,-13.69,-13.73,0,*68
1509372150.18,49740,8.44,72198.8,-12.99,-13.61,-13.73,0,*6E
1509372151.44,49741,8.44,72194.3,-12.99,-13.73,-13.87,0,*67
1509372152.71,49742,8.44,72204.8,-13.01,-13.73,-13.87,0,*64
1509372153.97,49743,8.44,72208.8,-13.01,-13.69,-13.83,0,*6A
1509372155.23,49744,8.44,72202.5,-13.01,-13.73,-13.87,0,*62
1509372156.49,49745,8.44,72204.5,-13.01,-13.73,-13.87,0,*63
1509372157.78,49746,8.44,72208.5,-13.01,-13.83,-13.83,0,*6B
1509372159.05,49747,8.44,72212.3,-13.01,-13.73,-13.87,0,*61
1509372160.31,49748,8.44,72220.5,-13.01,-13.73,-13.87,0,*6E
1509372161.6,49749,8.44,72228.0,-13.01,-13.83,-13.87,0,*60
1509372162.86,49750,8.44,72220.8,-13.01,-13.69,-13.87,0,*6C
1509372164.1,49751,8.44,72226.3,-13.01,-13.73,-13.93,0,*63
1509372165.36,49752,8.44,72226.0,-13.01,-13.73,-13.87,0,*65
1509372166.62,49753,8.44,72238.3,-12.99,-13.73,-13.87,0,*64
1509372167.91,49754,8.44,72244.0,-13.01,-13.83,-13.87,0,*6C
1509372169.18,49755,8.44,72246.5,-13.01,-13.69,-13.87,0,*69
1509372170.44,49756,8.44,72242.5,-13.01,-13.73,-13.87,0,*61
1509372171.7,49757,8.44,72240.0,-12.99,-13.69,-13.87,0,*6B
1509372172.96,49758,8.44,72242.3,-13.01,-13.69,-13.87,0,*64
1509372174.23,49759,8.44,72246.0,-12.99,-13.69,-13.83,0,*61
1509372175.47,49760,8.44,72254.0,-12.99,-13.69,-13.69,0,*6F
1509372176.73,49761,8.44,72248.3,-12.99,-13.61,-13.69,0,*66
1509372177.97,49762,8.44,72256.8,-12.97,-13.65,-13.83,0,*6B
1509372179.2,49763,8.44,72254.0,-12.97,-13.55,-13.79,0,*6C
1509372180.44,49764,8.44,72248.8,-12.99,-13.55,-13.73,0,*6F
1509372181.73,49765,8.44,72252.8,-12.99,-13.61,-13.83,0,*66
1509372183.0,49766,8.44,72256.0,-12.99,-13.73,-13.83,0,*66
1509372184.26,49767,8.44,72254.3,-12.99,-13.69,-13.83,0,*6C
1509372185.5,49768,8.44,72258.0,-12.97,-13.55,-13.83,0,*62
1509372186.72,49769,8.44,72260.5,-12.97,-13.51,-13.69,0,*63
1509372188.01,49770,8.44,72264.0,-12.99,-13.61,-13.83,0,*62
1509372189.25,49771,8.44,72256.5,-12.97,-13.65,-13.79,0,*6C
1509372190.51,49772,8.44,72254.3,-12.99,-13.69,-13.83,0,*68
1509372191.75,49773,8.44,72250.3,-12.97,-13.65,-13.83,0,*6B
1509372192.98,49774,8.44,72246.8,-12.97,-13.69,-13.79,0,*65
1509372194.25,49775,8.44,72244.0,-12.99,-13.69,-13.87,0,*6B
1509372195.51,49776,8.44,72236.3,-12.99,-13.69,-13.87,0,*68
1509372196.78,49777,8.44,72234.8,-12.99,-13.69,-13.87,0,*69
1509372198.04,49778,8.44,72228.0,-12.99,-13.73,-13.87,0,*6D
1509372199.28,49779,8.44,72230.5,-12.99,-13.93,-14.15,0,*6E
1509372200.53,49780,8.44,72216.8,-12.97,-13.97,-14.23,0,*67
1509372201.78,49781,8.44,72212.8,-12.99,-13.93,-14.15,0,*69
1509372203.01,49782,8.44,72212.0,-12.99,-13.73,-13.93,0,*6D
1509372204.26,49783,8.44,72206.8,-12.97,-13.69,-14.01,0,*65
1509372205.55,49784,8.44,72204.0,-12.99,-13.87,-14.05,0,*68
1509372206.85,49785,8.44,72194.0,-12.99,-13.87,-14.05,0,*69
1509372208.09,49786,8.44,72186.5,-12.97,-13.83,-14.11,0,*65
1509372209.37,49787,8.44,72180.3,-12.97,-13.83,-14.05,0,*61
1509372210.63,49788,8.44,72176.3,-12.99,-13.83,-13.93,0,*68
1509372211.87,49789,8.44,72174.0,-12.99,-13.73,-13.93,0,*66
1509372213.14,49790,8.44,72176.3,-12.99,-13.83,-13.93,0,*61
1509372214.38,49791,8.44,72178.0,-12.99,-13.73,-13.93,0,*6F
1509372215.61,49792,8.44,72180.3,-12.99,-13.69,-13.93,0,*67
1509372216.88,49793,8.44,72180.8,-12.99,-13.69,-13.87,0,*63
1509372218.14,49794,8.44,72184.0,-12.99,-13.69,-13.87,0,*64
1509372219.41,49795,8.44,72190.3,-12.99,-13.73,-13.87,0,*6E
1509372220.67,49796,8.44,72192.8,-12.99,-13.69,-13.87,0,*66
1509372221.96,49797,8.44,72192.8,-12.99,-13.61,-13.83,0,*6B
1509372223.23,49798,8.44,72202.3,-12.99,-13.61,-13.73,0,*6B
1509372224.49,49799,8.44,72200.0,-12.99,-13.69,-13.87,0,*69
1509372225.75,49800,8.44,72206.8,-12.99,-13.69,-13.83,0,*62
1509372227.02,49801,8.44,72204.5,-12.99,-13.61,-13.73,0,*64
1509372228.29,49802,8.44,72212.3,-12.99,-13.61,-13.73,0,*67
1509372229.5,49803,8.44,72218.5,-12.97,-13.55,-13.69,0,*64
1509372230.76,49804,8.44,72220.5,-12.99,-13.69,-13.83,0,*66
1509372232.05,49805,8.44,72220.8,-12.99,-13.61,-13.83,0,*6F
1509372233.28,49806,8.44,72220.3,-12.97,-13.51,-13.65,0,*69
1509372234.49,49807,8.44,72224.5,-12.97,-13.55,-13.69,0,*60
1509372235.73,49808,8.44,72226.3,-12.99,-13.69,-13.73,0,*65
1509372236.97,49809,8.44,72228.8,-12.99,-13.69,-13.73,0,*64
1509372238.2,49810,8.44,72226.3,-12.97,-13.65,-13.79,0,*64
1509372239.47,49811,8.44,72220.3,-12.99,-13.69,-13.87,0,*66
1509372240.73,49812,8.44,72220.0,-12.99,-13.61,-13.73,0,*66
1509372241.97,49813,8.44,72222.0,-12.99,-13.55,-13.73,0,*60
1509372243.24,49814,8.38,72216.8,-12.99,-13.61,-13.73,0,*60
1509372244.51,49815,8.44,72220.5,-12.99,-13.61,-13.73,0,*61
1509372245.74,49816,8.44,72228.3,-12.97,-13.55,-13.79,0,*61
1509372247.01,49817,8.44,72228.5,-12.99,-13.69,-13.83,0,*64
1509372248.24,49818,8.44,72234.0,-12.97,-13.65,-13.79,0,*6C
1509372249.53,49819,8.44,72240.8,-12.99,-13.61,-13.87,0,*66
1509372250.77,49820,8.44,72240.3,-12.97,-13.55,-13.79,0,*64
1509372252.06,49821,8.44,72236.0,-12.99,-13.61,-13.87,0,*6D
1509372253.29,49822,8.44,72242.3,-12.97,-13.65,-13.79,0,*65
1509372254.5,49823,8.44,72250.5,-12.97,-13.55,-13.69,0,*66
1509372255.72,49824,8.44,72252.0,-12.97,-13.55,-13.65,0,*6D
1509372256.95,49825,8.44,72250.0,-12.97,-13.65,-13.79,0,*62
1509372258.19,49826,8.44,72240.3,-12.97,-13.69,-13.83,0,*68
1509372259.41,49827,8.44,72234.0,-12.97,-13.65,-13.65,0,*6D
1509372260.67,49828,8.44,72218.3,-12.99,-13.61,-13.69,0,*64
1509372261.91,49829,8.44,72218.5,-12.99,-13.55,-13.73,0,*69
1509372263.13,49830,8.44,72218.0,-12.97,-13.65,-13.65,0,*6B
1509372264.36,49831,8.44,72200.8,-12.97,-13.61,-13.69,0,*62
1509372265.57,49832,8.44,72200.0,-12.97,-13.65,-13.69,0,*65
1509372266.84,49833,8.44,72200.0,-12.99,-13.61,-13.69,0,*6E
1509372268.05,49834,8.44,72214.0,-12.97,-13.69,-13.65,0,*63
1509372269.3,49835,8.44,72218.3,-12.97,-13.69,-13.97,0,*6F
1509372270.58,49836,8.44,72216.3,-12.97,-13.83,-14.01,0,*60
1509372271.85,49837,8.44,72226.3,-12.99,-14.01,-14.19,0,*6B
1509372273.09,49838,8.44,72218.5,-12.97,-13.87,-14.11,0,*6B
1509372274.36,49839,8.44,72226.8,-12.99,-13.93,-14.05,0,*64
1509372275.6,49840,8.44,72224.5,-12.97,-13.87,-14.15,0,*60
1509372276.87,49841,8.44,72216.5,-12.99,-13.93,-14.05,0,*6B
1509372278.11,49842,8.44,72214.0,-12.99,-13.93,-14.15,0,*69
1509372279.35,49843,8.44,72210.0,-12.97,-13.87,-14.11,0,*67
1509372280.62,49844,8.44,72200.3,-12.99,-13.87,-14.15,0,*6A
1509372281.9,49845,8.44,72186.8,-12.99,-14.01,-14.15,0,*62
1509372283.19,49846,8.44,72168.5,-12.99,-13.87,-14.05,0,*69
1509372284.48,49847,8.44,72156.0,-12.99,-13.87,-14.05,0,*68
1509372285.78,49848,8.44,72190.8,-12.99,-13.87,-14.01,0,*63
1509372287.07,49849,8.44,72170.3,-12.99,-13.87,-14.01,0,*62
1509372288.37,49850,8.44,72184.0,-12.99,-13.87,-14.01,0,*6A
1509372289.67,49851,8.44,72208.8,-12.99,-13.83,-14.05,0,*6B
1509372290.97,49852,8.44,72206.8,-12.99,-13.87,-14.01,0,*68
1509372292.24,49853,8.44,72202.0,-12.99,-13.87,-14.15,0,*6C
1509372293.53,49854,8.44,72186.0,-13.01,-13.87,-14.01,0,*6E
1509372294.82,49855,8.44,72156.8,-13.01,-13.87,-14.01,0,*6F
1509372296.11,49856,8.44,72146.5,-13.01,-13.87,-14.05,0,*68
1509372297.35,49857,8.44,72160.5,-13.01,-13.93,-14.19,0,*61
1509372298.64,49858,8.44,72164.8,-13.01,-13.87,-14.05,0,*66
1509372299.94,49859,8.44,72160.3,-13.01,-13.87,-14.01,0,*63
1509372301.18,49860,8.44,72178.0,-13.03,-13.83,-13.93,0,*63
1509372302.48,49861,8.44,72168.5,-13.01,-13.83,-14.01,0,*6C
1509372303.74,49862,8.44,72192.8,-13.01,-13.87,-13.93,0,*67
1509372305.04,49863,8.44,72186.5,-13.01,-13.83,-14.01,0,*6E
1509372306.33,49864,8.44,72170.0,-13.01,-13.87,-14.05,0,*69
1509372307.62,49865,8.44,72166.3,-13.01,-13.87,-14.05,0,*68
1509372308.89,49866,8.44,72176.0,-13.01,-13.87,-14.15,0,*6A
1509372310.16,49867,8.44,72174.3,-13.01,-14.01,-14.29,0,*6D
1509372311.4,49868,8.44,72126.0,-13.01,-13.93,-14.19,0,*6D
1509372312.64,49869,8.44,72112.0,-13.01,-13.93,-14.15,0,*60
1509372313.88,49870,8.44,72104.8,-13.03,-13.87,-14.15,0,*6F
1509372315.15,49871,8.44,72114.8,-13.03,-13.87,-14.05,0,*6F
1509372316.41,49872,8.38,72092.5,-13.01,-13.93,-14.05,0,*6B
1509372317.68,49873,8.44,72100.0,-13.01,-13.87,-14.15,0,*6E
1509372318.97,49874,8.44,72102.5,-13.01,-13.87,-14.05,0,*68
1509372320.23,49875,8.44,72102.3,-13.01,-13.87,-13.93,0,*61
1509372321.47,49876,8.44,72100.5,-13.01,-13.73,-13.93,0,*69
1509372322.73,49877,8.44,72106.5,-13.01,-13.83,-13.93,0,*67
1509372323.97,49878,8.44,72142.5,-13.03,-13.83,-13.93,0,*6A
1509372325.21,49879,8.44,72154.3,-13.03,-13.87,-13.93,0,*6F
1509372326.48,49880,8.44,72170.5,-13.01,-13.83,-13.93,0,*6F
1509372327.74,49881,8.44,72192.3,-13.01,-13.69,-13.87,0,*6F
1509372329.0,49882,8.44,72198.0,-13.03,-13.87,-13.87,0,*6E
1509372330.29,49883,8.44,72202.3,-13.01,-13.83,-13.87,0,*69
1509372331.53,49884,8.44,72200.0,-13.03,-13.69,-13.87,0,*68
1509372332.75,49885,8.44,72200.5,-13.03,-13.69,-13.73,0,*62
1509372334.01,49886,8.44,72210.5,-13.01,-13.69,-13.83,0,*6C
1509372335.22,49887,8.44,72216.8,-13.03,-13.69,-13.73,0,*60
1509372336.49,49888,8.44,72222.5,-13.03,-13.61,-13.83,0,*68
1509372337.73,49889,8.44,72218.0,-13.01,-13.69,-13.73,0,*6C
1509372338.97,49890,8.44,72220.3,-13.01,-13.69,-13.73,0,*64
1509372340.2,49891,8.44,72226.3,-13.01,-13.69,-13.73,0,*65
1509372341.44,49892,8.44,72222.8,-13.03,-13.73,-13.87,0,*64
1509372342.68,49893,8.44,72220.3,-13.03,-13.69,-13.87,0,*6E
1509372343.94,49894,8.44,72222.0,-13.01,-13.73,-13.87,0,*60
1509372345.2,49895,8.44,72224.0,-13.01,-13.73,-13.83,0,*65
1509372346.47,49896,8.44,72218.5,-13.01,-13.73,-13.87,0,*62
1509372347.73,49897,8.44,72208.8,-13.01,-13.69,-13.83,0,*6C
1509372348.99,49898,8.44,72212.8,-13.01,-13.69,-13.83,0,*63
1509372350.23,49899,8.44,72214.3,-13.03,-13.69,-13.83,0,*60
1509372351.49,49900,8.44,72220.3,-13.01,-13.73,-13.87,0,*6C
1509372352.73,49901,8.44,72222.5,-13.03,-13.73,-13.83,0,*6B
1509372353.99,49902,8.44,72226.3,-13.01,-13.73,-13.83,0,*6A
1509372355.23,49903,8.44,72226.8,-13.03,-13.73,-13.87,0,*6D
1509372356.49,49904,8.44,72232.8,-13.01,-13.69,-13.83,0,*67
1509372357.73,49905,8.44,72234.0,-13.01,-13.69,-13.73,0,*69
1509372358.99,49906,8.44,72236.0,-13.01,-13.69,-13.83,0,*65
1509372360.23,49907,8.44,72236.0,-13.03,-13.69,-13.87,0,*62
1509372361.49,49908,8.44,72234.5,-13.01,-13.73,-13.87,0,*64
1509372362.76,49909,8.44,72230.0,-13.01,-13.61,-13.73,0,*6D
1509372364.0,49910,8.44,72220.3,-13.01,-13.73,-13.73,0,*66
1509372365.23,49911,8.44,72216.5,-13.01,-13.73,-13.73,0,*67
1509372366.5,49912,8.44,72240.3,-13.01,-13.73,-13.83,0,*6B
1509372367.76,49913,8.44,72238.8,-13.01,-13.61,-13.69,0,*6D
1509372369.0,49914,8.44,72232.3,-13.01,-13.73,-13.73,0,*62
1509372370.23,49915,8.44,72238.3,-13.01,-13.73,-13.73,0,*63
1509372371.47,49916,8.44,72234.0,-13.01,-13.69,-13.73,0,*6B
1509372372.74,49917,8.44,72242.5,-13.01,-13.61,-13.73,0,*62
1509372374.0,49918,8.44,72236.5,-13.01,-13.61,-13.69,0,*66
1509372375.29,49919,8.44,72236.5,-13.01,-13.61,-13.61,0,*6F
1509372376.58,49920,8.44,72238.3,-13.01,-13.61,-13.61,0,*65
1509372377.8,49921,8.44,72236.0,-13.03,-13.69,-13.73,0,*6D
1509372379.06,49922,8.44,72236.5,-13.01,-13.61,-13.73,0,*64
1509372380.3,49923,8.44,72240.3,-13.01,-13.55,-13.69,0,*69
1509372381.53,49924,8.44,72240.0,-13.01,-13.55,-13.69,0,*6E
1509372382.79,49925,8.44,72236.8,-13.01,-13.61,-13.69,0,*68
1509372384.03,49926,8.44,72232.8,-13.03,-13.61,-13.69,0,*69
1509372385.29,49927,8.44,72222.8,-13.01,-13.61,-13.73,0,*61
1509372386.55,49928,8.44,72214.0,-13.01,-13.61,-13.69,0,*65
1509372387.82,49929,8.44,72206.8,-13.01,-13.61,-13.73,0,*6F
1509372389.08,49930,8.44,72200.5,-13.01,-13.61,-13.69,0,*6C
1509372390.35,49931,8.44,72198.5,-13.01,-13.55,-13.61,0,*62
1509372391.64,49932,8.44,72200.0,-13.01,-13.61,-13.61,0,*66
1509372392.88,49933,8.44,72192.0,-13.03,-13.61,-13.69,0,*6D
1509372394.14,49934,8.44,72194.8,-13.01,-13.61,-13.73,0,*63
1509372395.38,49935,8.44,72192.3,-13.01,-13.69,-13.73,0,*6A
1509372396.61,49936,8.44,72190.5,-13.01,-13.73,-13.69,0,*69
1509372397.86,49937,8.44,72186.8,-12.99,-13.69,-13.73,0,*68
1509372399.12,49938,8.44,72184.5,-12.99,-13.61,-13.69,0,*64
1509372400.36,49939,8.44,72188.8,-13.01,-13.69,-13.73,0,*66
1509372401.62,49940,8.44,72198.5,-13.01,-13.69,-13.83,0,*67
1509372402.88,49941,8.44,72196.8,-13.01,-13.73,-13.83,0,*6D
1509372404.12,49942,8.44,72200.3,-13.01,-13.69,-13.73,0,*6A
1509372405.36,49943,8.44,72200.3,-13.01,-13.69,-13.73,0,*6B
1509372406.59,49944,8.44,72198.5,-13.01,-13.69,-13.69,0,*67
1509372407.83,49945,8.44,72204.5,-13.01,-13.69,-13.69,0,*66
1509372409.07,49946,8.44,72204.0,-12.99,-13.69,-13.73,0,*6E
1509372410.33,49947,8.44,72208.0,-12.99,-13.73,-13.83,0,*6B
1509372411.59,49948,8.44,72214.5,-13.01,-13.69,-13.83,0,*6F
1509372412.83,49949,8.44,72214.8,-12.99,-13.69,-13.73,0,*61
1509372414.1,49950,8.44,72210.3,-13.01,-13.61,-13.69,0,*6A
1509372415.34,49951,8.44,72214.0,-13.01,-13.55,-13.55,0,*63
1509372416.61,49952,8.44,72214.3,-12.99,-13.55,-13.61,0,*67
1509372417.9,49953,8.44,72214.5,-12.99,-13.61,-13.61,0,*61
1509372419.17,49954,8.44,72216.0,-12.99,-13.55,-13.61,0,*61
1509372420.41,49955,8.44,72216.3,-12.99,-13.69,-13.69,0,*67
1509372421.65,49956,8.44,72214.8,-13.01,-13.55,-13.55,0,*64
1509372422.92,49957,8.44,72210.0,-12.99,-13.55,-13.61,0,*62
1509372424.14,49958,8.44,72206.8,-12.97,-13.51,-13.51,0,*64
1509372425.39,49959,8.44,72204.3,-12.99,-13.55,-13.55,0,*6B
1509372426.63,49960,8.44,72202.3,-12.99,-13.55,-13.55,0,*61
1509372427.87,49961,8.44,72202.0,-12.99,-13.47,-13.55,0,*63
1509372429.1,49962,8.44,72200.5,-12.99,-13.47,-13.55,0,*60
1509372430.32,49963,8.44,72196.3,-12.97,-13.43,-13.51,0,*6F
1509372431.56,49964,8.44,72202.5,-12.97,-13.37,-13.43,0,*68
1509372432.8,49965,8.44,72200.3,-12.97,-13.37,-13.43,0,*69
1509372434.04,49966,8.44,72200.0,-12.97,-13.37,-13.43,0,*6A
1509372435.28,49967,8.44,72200.5,-12.99,-13.47,-13.55,0,*65
1509372436.52,49968,8.44,72204.0,-12.99,-13.55,-13.43,0,*6E
1509372437.76,49969,8.44,72206.8,-12.99,-13.55,-13.47,0,*6B
1509372438.99,49970,8.44,72206.5,-12.99,-13.47,-13.47,0,*60
1509372440.22,49971,8.44,72204.0,-12.99,-13.47,-13.47,0,*61
1509372441.43,49972,8.44,72208.3,-12.97,-13.43,-13.43,0,*6C
1509372442.67,49973,8.44,72214.0,-12.99,-13.47,-13.43,0,*67
1509372443.88,49974,8.44,72212.3,-12.97,-13.47,-13.47,0,*6A
1509372445.12,49975,8.44,72214.5,-12.97,-13.47,-13.61,0,*6F
1509372446.41,49976,8.44,72216.3,-12.99,-13.61,-13.61,0,*66
1509372447.66,49977,8.38,72210.5,-12.99,-13.55,-13.55,0,*67
1509372448.88,49978,8.44,72216.0,-12.97,-13.51,-13.51,0,*66
1509372450.1,49979,8.44,72222.3,-12.97,-13.43,-13.51,0,*64
1509372451.34,49980,8.44,72222.8,-12.99,-13.47,-13.55,0,*6C
1509372452.58,49981,8.44,72220.3,-12.97,-13.37,-13.51,0,*60
1509372453.83,49982,8.44,72230.0,-12.95,-13.43,-13.43,0,*61
1509372455.04,49983,8.44,72230.3,-12.97,-13.43,-13.43,0,*62
1509372456.27,49984,8.44,72236.0,-12.99,-13.47,-13.47,0,*6B
1509372457.51,49985,8.44,72234.5,-12.99,-13.43,-13.43,0,*6A
1509372458.75,49986,8.44,72238.5,-12.99,-13.47,-13.55,0,*6A
1509372459.97,49987,8.44,72242.8,-12.97,-13.43,-13.51,0,*65
1509372461.19,49988,8.44,72240.0,-12.97,-13.51,-13.51,0,*69
1509372462.42,49989,8.44,72242.5,-12.97,-13.51,-13.51,0,*68
1509372463.69,49990,8.44,72242.5,-12.99,-13.61,-13.55,0,*69
1509372464.91,49991,8.44,72242.3,-12.97,-13.51,-13.55,0,*65
1509372466.13,49992,8.44,72236.0,-12.97,-13.55,-13.55,0,*62
1509372467.34,49993,8.44,72224.0,-12.97,-13.65,-13.69,0,*6F
1509372468.56,49994,8.44,72214.8,-12.97,-13.55,-13.65,0,*67
1509372469.77,49995,8.44,72214.0,-12.97,-13.65,-13.65,0,*65
1509372471.04,49996,8.44,72214.3,-12.99,-13.61,-13.65,0,*6C
1509372472.25,49997,8.44,72220.5,-12.97,-13.55,-13.65,0,*64
1509372473.49,49998,8.44,72224.5,-12.99,-13.69,-13.69,0,*66
1509372474.73,49999,8.44,72238.0,-12.99,-13.55,-13.69,0,*68
1509372475.94,50000,8.44,72234.3,-12.97,-13.55,-13.65,0,*6B
1509372477.16,50001,8.44,72240.5,-12.97,-13.69,-13.65,0,*65
1509372478.37,50002,8.44,72244.3,-12.97,-13.65,-13.65,0,*6A
1509372479.59,50003,8.44,72242.5,-12.97,-13.55,-13.55,0,*6B
1509372480.82,50004,8.44,72242.0,-12.97,-13.51,-13.51,0,*6C
1509372482.06,50005,8.44,72242.3,-12.99,-13.47,-13.55,0,*60
1509372483.28,50006,8.44,72240.8,-12.97,-13.51,-13.43,0,*6D
1509372484.52,50007,8.44,72242.5,-12.99,-13.43,-13.55,0,*66
1509372485.74,50008,8.44,72250.5,-12.97,-13.43,-13.51,0,*63
1509372486.97,50009,8.44,72250.0,-12.99,-13.47,-13.47,0,*6F
1509372488.2,50010,8.44,72250.8,-12.99,-13.43,-13.47,0,*63
1509372489.43,50011,8.44,72244.3,-12.97,-13.51,-13.51,0,*68
1509372490.65,50012,8.44,72250.0,-12.97,-13.51,-13.51,0,*6B
1509372491.91,50013,8.44,72246.3,-12.95,-13.51,-13.51,0,*68
1509372493.16,50014,8.44,72252.5,-12.95,-13.51,-13.51,0,*6F
1509372494.43,50015,8.44,72250.3,-12.99,-13.55,-13.61,0,*65
1509372495.65,50016,8.44,72252.0,-12.97,-13.43,-13.51,0,*6C
1509372496.87,50017,8.44,72256.8,-12.97,-13.43,-13.51,0,*6D
1509372498.09,50018,8.44,72260.3,-12.97,-13.51,-13.55,0,*65
1509372499.31,50019,8.44,72258.8,-12.97,-13.43,-13.43,0,*60
1509372500.55,50020,8.44,72262.5,-12.99,-13.47,-13.55,0,*67
1509372501.82,50021,8.44,72260.8,-12.95,-13.43,-13.37,0,*6A